Regional Weather Roundup
Issued by NWS

Home | Current Version | Previous Version | Graphics & Text | Print | Product List | Glossary On
Versions: 1 2 3 4 5 6 7 8 9 10 11 12 13 14 15 16 17 18 19 20 21 22 23 24 25 26 27 28 29 30 31 32 33 34 35 36 37 38 39 40 41 42 43 44 45 46 47 48 49 50
000
ASUS43 KLOT 231508
RWRIL

ILLINOIS REGIONAL WEATHER ROUNDUP
NATIONAL WEATHER SERVICE CHICAGO/ROMEOVILLE IL
900 AM CST MON JAN 23 2017

NOTE: "FAIR" INDICATES FEW OR NO CLOUDS BELOW 12,000 FEET WITH NO
SIGNIFICANT WEATHER AND/OR OBSTRUCTIONS TO VISIBILITY.

* THESE STATIONS ARE NOT UNDER NWS QUALITY CONTROL. THEY ALSO MAY NOT
  REPORT WEATHER SUCH AS PRECIPITATION OR FOG.

ILZ001-002-007-009-015-016-024-231600-
NORTHWEST ILLINOIS

CITY           SKY/WX    TMP DP  RH WIND       PRES   REMARKS
MOLINE         CLOUDY    38  34  85 NW7       29.82S WCI  33
STERLING*      CLOUDY    37  36  96 NW9       29.81R WCI  30
SAVANNA*       CLOUDY    37  35  92 N6        29.82R FOG     WCI  32
$$

ILZ003-004-008-010-011-017-018-231600-
NORTH CENTRAL ILLINOIS

CITY           SKY/WX    TMP DP  RH WIND       PRES   REMARKS
ROCKFORD       CLOUDY    38  35  89 N7        29.81R WCI  33
FREEPORT*      CLOUDY    36  35  95 NW8       29.81S FOG     WCI  30
ROCHELLE*      CLOUDY    36  36  99 NW9       29.80R FOG     WCI  29
DE KALB*       CLOUDY    36  36  99 N8        29.78S FOG     WCI  30
PERU*          CLOUDY    36  34  93 NW8       29.80R FOG     WCI  30
$$

ILZ005-006-012>014-019>023-231600-
NORTHEAST ILLINOIS

CITY           SKY/WX    TMP DP  RH WIND       PRES   REMARKS
CHICAGO-OHARE  CLOUDY    38  35  89 N13       29.76R WCI  30
CHICAGO-MIDWAY CLOUDY    39  34  82 N16G24    29.76R WCI  30
AURORA         CLOUDY    38  35  89 NW8       29.77S FOG     WCI  32
LANSING*       CLOUDY    37  36  96 N9G16     29.75R WCI  31
JOLIET*        CLOUDY    40  37  86 N9        29.77R
WAUKEGAN       CLOUDY    38  35  89 NW6       29.75R WCI  33
DUPAGE AIRPORT CLOUDY    38  34  85 NW9       29.77R WCI  31
KANKAKEE*      CLOUDY    38  35  87 N10       29.76R WCI  32
WHEELING       CLOUDY    38  34  85 N7        29.77R WCI  33
MORRIS*        CLOUDY    38  35  89 NW6       29.76S WCI  34
ROMEOVILLE*    CLOUDY    38  37  94 N14       29.77R WCI  30
NORTHERLY ISL    N/A     38  35  89 N10         N/A  WCI  31
$$

LMZ740>746-231600-
SOUTHERN LAKE MICHIGAN

STATION/POSITION SKY/WX   TEMP    WIND        PRES    VSBY  WAVE
                          AIR SEA DIR/SP/G                  HT/PER
                          (F)     (DEG/KT/KT) (MB)    (MI)  (FT/S)
HARRISON CRIB              36     340/ 11/ 12   N/A
BURNHAM HARBOR             38     360/ 10/ 13   N/A
CALUMET HARBOR             37     320/  8/ 13 1007.1R
BURNS HARBOR               36     340/ 12/ 15 1007.8R
MICHIGAN CITY              36     340/ 16/ 17   N/A
$$

ILZ025>027-034>036-040-047-049-050-058-095>099-231600-
WEST-CENTRAL ILLINOIS

CITY           SKY/WX    TMP DP  RH WIND       PRES   REMARKS
QUINCY         CLOUDY    39  34  82 N10       29.84S WCI  32
GALESBURG*     CLOUDY    36  36  98 NW7       29.82S FOG     WCI  31
MACOMB*        CLOUDY    37  36  95 NW10      29.85S WCI  30
JACKSONVILLE*  CLOUDY    38  35  90 NW10      29.83R WCI  30
PITTSFIELD*    CLOUDY    39  36  87 N9        29.84F WCI  33
$$

ILZ028>032-037-038-041>044-048-051>054-059>061-231600-
CENTRAL ILLINOIS

CITY           SKY/WX    TMP DP  RH WIND       PRES   REMARKS
PONTIAC        CLOUDY    39  38  98 N12       29.79R WCI  32
BLOOMINGTON    CLOUDY    37  34  89 N21       29.79R WCI  26
DECATUR        CLOUDY    38  37  97 NW15G22   29.79R WCI  29
PEORIA         CLOUDY    38  35  89 NW6       29.81R WCI  33
LACON*         CLOUDY    37  36  97 NW6       29.80R FOG     WCI  32
LINCOLN*       CLOUDY    39  37  89 NW10      29.80R WCI  33
SPRINGFIELD    CLOUDY    39  35  86 NW10      29.82R WCI  32
TAYLORVILLE    CLOUDY    37  35  90 NW16G24   29.81R WCI  28
$$

ILZ033-039-045-046-055>057-062-063-231600-
EAST-CENTRAL ILLINOIS

CITY           SKY/WX    TMP DP  RH WIND       PRES   REMARKS
CHAMPAIGN      CLOUDY    39  35  86 N15       29.75R WCI  31
RANTOUL*       CLOUDY    39  37  91 N17G25    29.74S WCI  30
MATTOON        CLOUDY    39  35  86 N22G29    29.75R WCI  29
PARIS*         CLOUDY    39  37  93 N13G21    29.74R FOG     WCI  32
$$

ILZ079-100>102-231600-
SOUTHWEST ILLINOIS

CITY           SKY/WX    TMP DP  RH WIND       PRES   REMARKS
ALTON          CLOUDY    39  36  87 NW16      29.82R WCI  30
BELLEVILLE     CLOUDY    41  38  86 N13       29.79F
CAHOKIA*       CLOUDY    43  36  76 NW14      29.81F
SPARTA*        CLOUDY    40  35  81 N16G23    29.81S
$$

ILZ064>066-069>071-074>076-080>082-084>086-088>090-092>094-231600-
SOUTH-CENTRAL ILLINOIS

CITY           SKY/WX    TMP DP  RH WIND       PRES   REMARKS
CARBONDALE     CLOUDY    41  37  86 N20G26    29.78S
CAIRO*         CLOUDY    42  37  82 N15G22    29.77R
EFFINGHAM*     CLOUDY    40  37  90 NW15G26   29.78R
MARION         CLOUDY    43  39  87 N17G25    29.78R
MT. VERNON     CLOUDY    41  36  82 VRB6      29.78R
CENTRALIA*     CLOUDY    41  37  87 NW21      29.78R
SALEM*         CLOUDY    41  37  84 NW13G21   29.79R
METROPOLIS*    CLOUDY    42  37  80 NW15      29.76R
$$

ILZ067-068-072-073-078-083-087-091-231600-
SOUTHEAST ILLINOIS

CITY           SKY/WX    TMP DP  RH WIND       PRES   REMARKS
LAWRENCEVILLE  CLOUDY    42  39  89 N17       29.73R
FLORA*         CLOUDY    42  37  83 NW14G23   29.77R
FAIRFIELD*     CLOUDY    41  37  84 NW10      29.76R
HARRISBURG*    CLOUDY    42  37  85 NW20      29.76R
ROBINSON*      CLOUDY    40  38  91 N13       29.73R FOG
CARMI*         CLOUDY    42  38  83 NW18G25   29.74R
$$

ABBREVIATIONS USED IN REMARKS
   TC - TEMPERATURE IN CELSIUS
  WCI - WIND CHILL INDEX
   HX - HEAT INDEX
  VSB - VISIBILITY
$$





USA.gov is the U.S. government's official web portal to all federal, state and local government web resources and services.